[[{"header":{"parameterUnit":"m.s-1","parameterCategory":1,"la1":30.2991,"la2":30.254,"lo1":-89.0895,"lo2":-89.0444,"dy":0.0017,"dx":0.0017,"nx":28,"ny":28,"refTime":"2025-03-10T09:00:00:Z","depth":0,"parameterNumber":2,"parameterNumberName":"U-component_of_WINDS"},"data":[0,0,0,0,0,0,0,0,0,0,0,0,0,0,0,0,0,0,0,0,0,0,0,0,0,0,0,0,0,0,0,0,0,0,0,0,0,0,0,0,0,0,0,0,0,0,0,0,0,0,0,0,0,0,0,0,0,0,2.1066,2.1067,0,2.121,2.1211,2.1213,2.125,2.1249,2.1248,2.1247,2.14,2.1405,2.1409,0,0,0,0,0,0,0,0,0,0,0,0,0,2.0829,2.0833,2.1066,2.1067,2.1069,2.1209,2.1211,2.1213,2.125,2.1249,2.1248,2.1247,2.1398,2.1404,2.141,0,0,0,0,0,0,0,0,0,0,0,0,0,2.0948,2.0834,2.1065,2.1104,2.1109,2.1209,2.1211,2.1214,2.125,2.1249,2.1248,2.1246,2.1396,2.1403,2.1411,2.1483,0,0,2.1433,2.1436,0,0,0,0,0,0,0,0,2.0941,2.0957,2.1097,2.1102,2.1108,2.121,2.1184,2.1304,2.1251,2.1197,2.1247,2.1246,2.1338,2.135,2.138,2.149,2.1497,2.1434,2.1438,2.1441,2.1444,0,0,0,0,0,0,0,2.0933,2.0951,2.1123,2.1099,2.1105,2.1117,2.1132,2.1207,2.1274,2.1202,2.1205,2.1221,2.1341,2.1373,2.1384,2.1499,2.1434,2.144,2.1445,2.1448,2.1677,2.1679,0,0,0,0,0,0,2.0917,2.0944,2.1118,2.1127,2.1019,2.1122,2.1139,2.1179,2.1273,2.1286,2.1222,2.1222,2.1361,2.1376,2.139,2.1481,2.1441,2.1448,2.1452,2.1676,2.1678,2.168,0,0,0,0,0,0,2.0912,2.0932,2.1112,2.1036,2.106,2.1127,2.1172,2.1182,2.1215,2.1288,2.1301,2.1242,2.1361,2.1379,2.146,2.1487,2.1452,2.1458,2.1674,2.1676,2.1679,2.1664,0,0,0,0,0,0,2.0905,2.093,2.0957,2.1036,2.1064,2.1178,2.1173,2.1186,2.1227,2.1228,2.1311,2.1323,2.1361,2.1448,2.1467,2.1497,2.1464,2.1672,2.1675,2.1678,2.1663,2.1666,2.1669,0,0,0,0,0,2.0896,2.0948,2.0958,2.0979,2.1098,2.1179,2.1195,2.1237,2.1229,2.1257,2.1305,2.132,2.1481,2.1456,2.1477,2.151,2.167,2.1674,2.1678,2.1661,2.1666,2.1669,0,0,0,0,0,0,2.0871,2.0959,2.0971,2.105,2.1107,2.1185,2.1222,2.124,2.1301,2.13,2.1351,2.1369,2.1446,2.1487,2.1457,2.1586,2.1576,2.1584,2.1556,2.1561,2.1564,2.1553,2.147,0,0,0,0,0,2.0875,2.0931,2.1006,2.1068,2.1096,2.1154,2.1191,2.1218,2.128,2.1304,2.1358,2.1419,2.1483,2.1524,2.1588,2.1669,2.1688,2.1702,2.1705,2.1707,2.1714,2.1761,2.1768,2.1692,2.1692,2.1692,0,0,2.0883,2.0938,2.0971,2.1065,2.1112,2.1171,2.1174,2.1237,2.1282,2.1315,2.1393,2.1435,2.1506,2.1587,2.1626,2.1623,2.1739,2.1712,2.1713,2.1719,2.1766,2.1773,2.1779,2.1695,2.1694,2.1694,0,0,2.0927,2.0974,2.1032,2.1079,2.115,2.1189,2.1202,2.1279,2.1307,2.1387,2.1413,2.1468,2.1578,2.1628,2.1667,2.1732,2.175,2.1752,2.1768,2.1814,2.182,2.1825,2.1849,2.1857,2.1758,2.1758,2.1758,0,2.0929,2.1017,2.1059,2.1121,2.1162,2.1193,2.1253,2.1297,2.1386,2.1415,2.141,2.1548,2.1599,2.1692,2.1708,2.1739,2.1758,2.1742,2.1815,2.1821,2.1827,2.185,2.1859,2.1758,2.1758,2.1758,2.1758,0,2.1016,2.1077,2.1115,2.1199,2.1244,2.1305,2.1357,2.1399,2.1423,2.1462,2.1544,2.1605,2.1682,2.1706,2.173,2.1804,2.18,2.1805,2.1796,2.1833,2.1856,2.1865,2.1758,2.1758,2.1758,2.1758,0,0,2.1047,2.1154,2.1167,2.1206,2.1287,2.1337,2.1399,2.1473,2.1508,2.1569,2.1623,2.1715,2.172,2.1765,2.1796,2.1836,2.1884,2.1836,2.1838,2.1843,2.197,2.1965,2.1975,2.1896,2.1898,2.1899,2.1964,0,2.1102,2.1213,2.1253,2.1345,2.1403,2.1435,2.1489,2.1546,2.1585,2.1642,2.1686,2.1751,2.1752,2.178,2.1821,2.1869,2.191,2.1865,2.1949,2.1951,2.1929,2.1987,2.1982,2.204,2.1973,2.1974,2.1975,0,2.1181,2.1241,2.1338,2.1413,2.1439,2.1487,2.1558,2.1611,2.1677,2.1703,2.1754,2.1782,2.185,2.1838,2.1934,2.1902,2.1939,2.1969,2.1972,2.1981,2.1965,2.1997,2.2059,2.2067,2.199,2.1989,2.1988,0,2.1194,2.13,2.1372,2.1404,2.1493,2.1527,2.1566,2.163,2.1672,2.1736,2.1763,2.1834,2.1873,2.1928,2.1975,2.1961,2.2067,2.2058,2.2091,2.209,2.2112,2.211,2.218,2.2136,2.2136,2.2136,2.2135,0,2.1251,2.1309,2.1379,2.1423,2.149,2.1537,2.1603,2.1644,2.1701,2.1756,2.1788,2.1839,2.1898,2.1956,2.1994,2.2068,2.2086,2.2109,2.2119,2.2106,2.2103,2.2131,2.2128,2.2138,2.2137,2.2137,2.2137,0,2.1276,2.1326,2.1406,2.1484,2.1505,2.1551,2.1619,2.1664,2.1705,2.1773,2.1792,2.1857,2.1928,2.198,2.2073,2.2098,2.2177,2.2187,2.2154,2.2159,2.2189,2.2185,2.2279,2.2294,2.224,2.2241,2.2241,0,2.1309,2.1354,2.1437,2.1475,2.1514,2.1575,2.1617,2.1667,2.171,2.1789,2.1825,2.1898,2.1959,2.2071,2.2128,2.2199,2.221,2.2238,2.2221,2.2207,2.2211,2.2207,2.2212,2.224,2.2241,2.2241,2.2241,0,2.1362,2.1384,2.1443,2.1512,2.1562,2.1619,2.1676,2.1706,2.1766,2.1813,2.1885,2.1932,2.2026,2.2099,2.2175,2.2218,2.224,2.2246,2.2258,2.2245,2.2224,2.2236,2.216,2.2244,2.2243,2.2243,2.2243,2.2243,2.1392,2.1434,2.1499,2.1565,2.1613,2.1666,2.1712,2.1759,2.182,2.1899,2.1925,2.1999,2.2066,2.2171,2.2215,2.2275,2.2275,2.2291,2.2296,2.2299,2.2298,2.2215,2.229,2.229,2.229,2.229,2.229,0,2.1446,2.149,2.155,2.1629,2.1681,2.1696,2.1761,2.1804,2.1869,2.1929,2.1988,2.2071,2.2142,2.2204,2.2278,2.2314,2.2326,2.2332,2.233,2.2339,2.2294,2.2277,2.2321,2.2321,2.2321,2.2321,2.2321,2.2321,2.148,2.1552,2.1583,2.168,2.1724,2.1796,2.1832,2.1882,2.193,2.2021,2.2079,2.2119,2.218,2.2259,2.2325,2.2342,2.2368,2.2371,2.239,2.2346,2.2342,2.2339,2.2322,2.2376,2.2376,2.243,2.243,2.2431]},{"header":{"parameterUnit":"m.s-1","parameterCategory":1,"la1":30.2991,"la2":30.254,"lo1":-89.0895,"lo2":-89.0444,"dy":0.0017,"dx":0.0017,"nx":28,"ny":28,"refTime":"2025-03-10T09:00:00:Z","depth":0,"parameterNumber":3,"parameterNumberName":"V-component_of_WINDS"},"data":[0,0,0,0,0,0,0,0,0,0,0,0,0,0,0,0,0,0,0,0,0,0,0,0,0,0,0,0,0,0,0,0,0,0,0,0,0,0,0,0,0,0,0,0,0,0,0,0,0,0,0,0,0,0,0,0,0,0,3.357,3.357,0,3.3576,3.3576,3.3576,3.359,3.359,3.3591,3.3591,3.3595,3.3595,3.3595,0,0,0,0,0,0,0,0,0,0,0,0,0,3.3566,3.3566,3.357,3.357,3.357,3.3576,3.3576,3.3576,3.359,3.359,3.3591,3.3591,3.3595,3.3595,3.3595,0,0,0,0,0,0,0,0,0,0,0,0,0,3.357,3.3566,3.357,3.3578,3.3578,3.3576,3.3576,3.3577,3.359,3.359,3.3591,3.3591,3.3595,3.3595,3.3595,3.3585,0,0,3.3594,3.3594,0,0,0,0,0,0,0,0,3.3569,3.357,3.3576,3.3577,3.3578,3.3583,3.3577,3.3579,3.359,3.3585,3.3591,3.3591,3.3591,3.3591,3.3591,3.3585,3.3585,3.3594,3.3594,3.3594,3.3594,0,0,0,0,0,0,0,3.3569,3.357,3.3572,3.3576,3.3577,3.358,3.3581,3.3577,3.3585,3.3586,3.3587,3.3588,3.3591,3.3591,3.3591,3.3585,3.3594,3.3594,3.3594,3.3594,3.357,3.3569,0,0,0,0,0,0,3.3568,3.3569,3.3572,3.3573,3.3575,3.3579,3.3581,3.3581,3.3586,3.3587,3.3587,3.3588,3.3591,3.3591,3.3591,3.3579,3.3594,3.3594,3.3594,3.357,3.357,3.3569,0,0,0,0,0,0,3.3568,3.3568,3.3572,3.3571,3.3572,3.3579,3.3579,3.3581,3.3581,3.3587,3.3588,3.3586,3.3592,3.3592,3.3586,3.3579,3.3594,3.3593,3.3571,3.357,3.3569,3.3555,0,0,0,0,0,0,3.3568,3.3568,3.3565,3.3571,3.3572,3.3568,3.3579,3.3581,3.3581,3.3582,3.3586,3.3587,3.3592,3.3586,3.3586,3.3579,3.3593,3.3572,3.3571,3.357,3.3556,3.3554,3.3552,0,0,0,0,0,3.3568,3.3561,3.3565,3.3566,3.3569,3.3567,3.3568,3.3574,3.358,3.3577,3.358,3.3587,3.358,3.3586,3.3585,3.3578,3.3572,3.3571,3.357,3.3557,3.3554,3.3552,0,0,0,0,0,0,3.3554,3.3562,3.3567,3.3562,3.3564,3.357,3.3566,3.3571,3.3571,3.3572,3.358,3.3581,3.3574,3.3576,3.3582,3.3568,3.3577,3.3576,3.3567,3.3565,3.3563,3.3562,3.3593,0,0,0,0,0,3.355,3.355,3.3556,3.3551,3.3552,3.3558,3.3558,3.3563,3.3565,3.3566,3.3569,3.357,3.3568,3.3567,3.3565,3.3556,3.3556,3.3551,3.3549,3.3547,3.3546,3.3539,3.3537,3.3565,3.3566,3.3566,0,0,3.3543,3.3547,3.3546,3.3548,3.3551,3.3548,3.3559,3.3557,3.3555,3.3565,3.356,3.3562,3.3564,3.3556,3.3553,3.3557,3.3538,3.3546,3.3544,3.3544,3.3538,3.3535,3.3533,3.3565,3.3565,3.3565,0,0,3.3528,3.3532,3.3527,3.3529,3.3532,3.3536,3.3535,3.354,3.3542,3.3537,3.3544,3.3541,3.3538,3.3539,3.3538,3.3522,3.3527,3.3521,3.351,3.3503,3.3501,3.3499,3.3492,3.3489,3.352,3.352,3.352,0,3.3518,3.3516,3.3524,3.3521,3.3521,3.3531,3.3525,3.3526,3.3528,3.3528,3.3533,3.3528,3.353,3.3521,3.3517,3.3517,3.3515,3.3521,3.3501,3.3499,3.3497,3.349,3.3488,3.3519,3.3519,3.3519,3.3519,0,3.3503,3.3501,3.3497,3.3499,3.3499,3.3494,3.35,3.3499,3.3503,3.3506,3.35,3.3503,3.3501,3.3499,3.3504,3.3491,3.3494,3.35,3.3509,3.3493,3.3487,3.3484,3.3518,3.3518,3.3518,3.3518,0,0,3.348,3.3486,3.3484,3.3485,3.3488,3.3486,3.3482,3.3481,3.3478,3.3479,3.3474,3.3471,3.3476,3.3475,3.348,3.3474,3.3459,3.3481,3.3481,3.3476,3.3443,3.3438,3.3435,3.3463,3.3462,3.3462,3.3443,0,3.3465,3.3459,3.3465,3.3456,3.3454,3.3462,3.3458,3.3459,3.3461,3.3458,3.3461,3.3458,3.3466,3.3465,3.346,3.3462,3.3452,3.3464,3.3457,3.3457,3.3456,3.3432,3.3426,3.3408,3.344,3.344,3.344,0,3.3448,3.3448,3.3439,3.3441,3.344,3.3437,3.3435,3.3433,3.3433,3.3435,3.3434,3.3439,3.3433,3.3442,3.3433,3.344,3.3438,3.3438,3.3438,3.3437,3.3447,3.3429,3.3403,3.3399,3.3436,3.3436,3.3436,0,3.343,3.3428,3.3422,3.3422,3.3426,3.3422,3.3423,3.3424,3.3423,3.3421,3.342,3.3417,3.3416,3.3413,3.3417,3.3423,3.3406,3.3416,3.3406,3.3406,3.3402,3.3402,3.3374,3.3402,3.3402,3.3402,3.3402,0,3.3413,3.3406,3.3414,3.341,3.3403,3.341,3.3402,3.3404,3.3404,3.34,3.3407,3.3403,3.3408,3.3404,3.3406,3.3397,3.3397,3.3397,3.3398,3.3396,3.3396,3.3394,3.3395,3.3401,3.3401,3.3402,3.3402,0,3.3392,3.3397,3.3391,3.3394,3.3395,3.3389,3.3392,3.3387,3.339,3.3384,3.3383,3.3387,3.3382,3.3385,3.338,3.3382,3.337,3.3372,3.337,3.337,3.336,3.336,3.3329,3.3324,3.3356,3.3356,3.3355,0,3.338,3.3376,3.3378,3.3376,3.3377,3.3373,3.3372,3.3377,3.3375,3.3374,3.337,3.3365,3.3362,3.3353,3.3355,3.335,3.3352,3.3342,3.3352,3.335,3.3351,3.335,3.3349,3.3339,3.3339,3.3339,3.3338,0,3.3358,3.336,3.3358,3.3356,3.3354,3.3353,3.3352,3.3349,3.3355,3.3352,3.3347,3.3344,3.3339,3.3334,3.333,3.3329,3.3334,3.3335,3.3332,3.333,3.3328,3.3328,3.3363,3.3336,3.3336,3.3336,3.3336,3.3337,3.3341,3.3336,3.3337,3.3334,3.3334,3.3333,3.3328,3.333,3.3327,3.3323,3.3326,3.332,3.3318,3.3314,3.3312,3.3306,3.3311,3.3307,3.3306,3.3305,3.3303,3.333,3.3306,3.3306,3.3306,3.3306,3.3306,0,3.3318,3.3319,3.3316,3.3314,3.3311,3.3317,3.3315,3.3312,3.3307,3.3305,3.3302,3.3295,3.329,3.329,3.3285,3.328,3.3282,3.3278,3.3278,3.3278,3.33,3.3302,3.3277,3.3277,3.3277,3.3277,3.3277,3.3277,3.3306,3.3298,3.33,3.3292,3.3293,3.3287,3.3286,3.3284,3.3283,3.3275,3.3271,3.3272,3.327,3.3265,3.326,3.326,3.3257,3.3252,3.3253,3.3273,3.3276,3.3279,3.3281,3.3252,3.3252,3.3231,3.3231,3.3231]}]]